TimeEDT,TemperatureF,Dew PointF,Humidity,Sea Level PressureIn,VisibilityMPH,Wind Direction,Wind SpeedMPH,Gust SpeedMPH,PrecipitationIn,Events,Conditions,WindDirDegrees,DateUTC
12:53 AM,43.0,21.9,43,29.98,10.0,Calm,Calm,-,N/A,,Overcast,0,2013-03-23 04:53:00
1:53 AM,39.0,21.9,50,29.97,10.0,Calm,Calm,-,N/A,,Clear,0,2013-03-23 05:53:00
2:53 AM,39.9,21.0,47,29.96,10.0,Calm,Calm,-,N/A,,Clear,0,2013-03-23 06:53:00
3:53 AM,37.9,21.9,53,29.95,10.0,Calm,Calm,-,N/A,,Mostly Cloudy,0,2013-03-23 07:53:00
4:53 AM,37.0,25.0,62,29.94,10.0,Calm,Calm,-,N/A,,Overcast,0,2013-03-23 08:53:00
5:53 AM,37.9,27.0,65,29.94,10.0,Calm,Calm,-,N/A,,Mostly Cloudy,0,2013-03-23 09:53:00
6:53 AM,37.0,30.9,79,29.95,10.0,North,4.6,-,0.00,Rain,Light Rain,10,2013-03-23 10:53:00
7:53 AM,37.0,30.0,76,29.98,10.0,Calm,Calm,-,0.00,Rain,Light Rain,0,2013-03-23 11:53:00
8:53 AM,39.9,32.0,73,29.99,10.0,NNE,5.8,-,0.00,,Overcast,20,2013-03-23 12:53:00
9:53 AM,39.9,32.0,73,30.00,10.0,Calm,Calm,-,N/A,,Overcast,0,2013-03-23 13:53:00
10:53 AM,42.1,30.0,62,30.02,10.0,North,4.6,-,N/A,,Overcast,10,2013-03-23 14:53:00
11:53 AM,45.0,28.0,52,29.99,10.0,Calm,Calm,-,N/A,,Overcast,0,2013-03-23 15:53:00
12:53 PM,48.9,28.0,44,29.96,10.0,Variable,4.6,-,N/A,,Mostly Cloudy,0,2013-03-23 16:53:00
1:53 PM,51.1,28.9,43,29.95,10.0,South,4.6,-,N/A,,Overcast,190,2013-03-23 17:53:00
2:53 PM,54.0,28.9,38,29.92,10.0,NNE,3.5,-,N/A,,Overcast,20,2013-03-23 18:53:00
3:53 PM,55.0,30.9,40,29.89,10.0,Calm,Calm,-,N/A,,Overcast,0,2013-03-23 19:53:00
4:53 PM,57.0,32.0,39,29.87,10.0,Calm,Calm,-,N/A,,Clear,0,2013-03-23 20:53:00
5:53 PM,57.0,32.0,39,29.86,10.0,Variable,3.5,-,N/A,,Clear,0,2013-03-23 21:53:00
6:53 PM,55.0,30.9,40,29.86,10.0,Calm,Calm,-,N/A,,Partly Cloudy,0,2013-03-23 22:53:00
7:53 PM,52.0,32.0,47,29.89,10.0,Calm,Calm,-,N/A,,Clear,0,2013-03-23 23:53:00
8:53 PM,50.0,33.1,52,29.90,10.0,Calm,Calm,-,N/A,,Clear,0,2013-03-24 00:53:00
9:53 PM,48.9,34.0,56,29.90,10.0,Calm,Calm,-,N/A,,Partly Cloudy,0,2013-03-24 01:53:00
10:53 PM,46.9,35.1,63,29.89,10.0,Calm,Calm,-,N/A,,Clear,0,2013-03-24 02:53:00
11:53 PM,45.0,37.9,76,29.88,10.0,South,3.5,-,N/A,,Mostly Cloudy,190,2013-03-24 03:53:00